Year,Month,Day,Hour,Minute,Value (Times are PST for temperature in C)
2008,10,15,00,00,4.70
2008,10,15,00,01,4.70
2008,10,15,00,02,4.70
2008,10,15,00,03,4.70
2008,10,15,00,04,4.70
2008,10,15,00,05,4.70
2008,10,15,00,06,4.70
2008,10,15,00,07,4.70
2008,10,15,00,08,4.70
2008,10,15,00,09,4.70
2008,10,15,00,10,4.70
2008,10,15,00,11,4.70
2008,10,15,00,12,4.70
2008,10,15,01,02,4.60
2008,10,15,01,03,4.60
2008,10,15,01,04,4.60
2008,10,15,01,05,4.60
2008,10,15,01,06,4.60
2008,10,15,01,07,4.60
2008,10,15,01,08,4.60
2008,10,15,01,09,4.60
2008,10,15,01,10,4.60
2008,10,15,01,11,4.60
2008,10,15,01,12,4.60
2008,10,15,01,13,4.60
2008,10,15,01,14,4.60
2008,10,15,01,15,4.60
2008,10,15,01,16,4.60
2008,10,15,01,17,4.60
2008,10,15,01,18,4.60
2008,10,15,01,19,4.50
2008,10,15,01,20,4.50
2008,10,15,01,21,4.50
2008,10,15,01,22,4.50
2008,10,15,01,23,4.50
2008,10,15,01,24,4.50
2008,10,15,01,25,4.50
2008,10,15,01,26,4.50
2008,10,15,01,27,4.50
2008,10,15,01,28,4.50
2008,10,15,01,29,4.50
2008,10,15,01,30,4.50
2008,10,15,01,31,4.50
2008,10,15,01,32,4.50
2008,10,15,01,33,4.50
2008,10,15,01,34,4.50
2008,10,15,01,35,4.40
2008,10,15,01,36,4.40
2008,10,15,01,37,4.40
2008,10,15,01,38,4.40
2008,10,15,01,39,4.40
2008,10,15,01,40,4.40
2008,10,15,01,41,4.40
2008,10,15,01,42,4.40
2008,10,15,01,43,4.40
2008,10,15,01,44,4.40
2008,10,15,01,45,4.40
2008,10,15,01,46,4.40
2008,10,15,01,47,4.40
2008,10,15,01,48,4.40
2008,10,15,01,49,4.30
2008,10,15,01,50,4.30
2008,10,15,01,51,4.30
2008,10,15,01,52,4.30
2008,10,15,01,53,4.30
2008,10,15,01,54,4.30
2008,10,15,01,55,4.30
2008,10,15,01,56,4.30
2008,10,15,01,57,4.30
2008,10,15,01,58,4.30
2008,10,15,01,59,4.30
2008,10,15,02,00,4.30
2008,10,15,02,01,4.30
2008,10,15,02,02,4.30
2008,10,15,02,03,4.20
2008,10,15,02,04,4.20
2008,10,15,02,05,4.20
2008,10,15,02,06,4.20
2008,10,15,02,07,4.20
2008,10,15,02,08,4.20
2008,10,15,02,09,4.20
2008,10,15,02,10,4.20
2008,10,15,02,11,4.20
2008,10,15,02,12,4.20
2008,10,15,02,13,4.20
2008,10,15,02,14,4.20
2008,10,15,02,15,4.20
2008,10,15,02,16,4.20
2008,10,15,02,17,4.20
2008,10,15,02,18,4.20
2008,10,15,02,19,4.20
2008,10,15,02,20,4.20
2008,10,15,02,21,4.20
2008,10,15,02,22,4.20
2008,10,15,02,23,4.20
2008,10,15,02,24,4.20
2008,10,15,02,25,4.20
2008,10,15,02,26,4.20
2008,10,15,02,27,4.20
2008,10,15,02,28,4.20
2008,10,15,02,29,4.20
2008,10,15,02,30,4.20
2008,10,15,02,31,4.20
2008,10,15,02,32,4.10
2008,10,15,02,33,4.10
2008,10,15,02,34,4.10
2008,10,15,02,35,4.10
2008,10,15,02,36,4.10
2008,10,15,02,37,4.10
2008,10,15,02,38,4.10
2008,10,15,02,39,4.10
2008,10,15,02,40,4.10
2008,10,15,02,41,4.10
2008,10,15,02,42,4.00
2008,10,15,02,43,4.00
2008,10,15,02,44,4.00
2008,10,15,02,45,4.00
2008,10,15,02,46,4.00
2008,10,15,02,47,4.00
2008,10,15,02,48,4.00
2008,10,15,02,49,4.00
2008,10,15,02,50,4.00
2008,10,15,02,51,4.00
2008,10,15,02,52,4.00
2008,10,15,02,53,4.00
2008,10,15,02,54,4.00
2008,10,15,02,55,4.00
2008,10,15,02,56,4.00
2008,10,15,02,57,4.00
2008,10,15,02,58,4.00
2008,10,15,02,59,4.00
2008,10,15,03,00,4.00
2008,10,15,03,01,4.00
2008,10,15,03,02,4.00
2008,10,15,03,03,4.00
2008,10,15,03,04,4.00
2008,10,15,03,05,3.90
2008,10,15,03,06,3.90
2008,10,15,03,07,3.90
2008,10,15,03,08,3.90
2008,10,15,03,09,3.90
2008,10,15,03,10,3.90
2008,10,15,03,11,3.90
2008,10,15,03,12,3.90
2008,10,15,03,13,3.90
2008,10,15,03,14,3.90
2008,10,15,03,15,3.90
2008,10,15,03,16,3.90
2008,10,15,03,17,3.90
2008,10,15,03,18,3.90
2008,10,15,03,19,3.80
2008,10,15,03,20,3.80
2008,10,15,03,21,3.80
2008,10,15,03,22,3.80
2008,10,15,03,23,3.80
2008,10,15,03,24,3.80
2008,10,15,03,25,3.80
2008,10,15,03,26,3.80
2008,10,15,03,27,3.80
2008,10,15,03,28,3.80
2008,10,15,03,29,3.80
2008,10,15,03,30,3.80
2008,10,15,03,31,3.80
2008,10,15,03,32,3.80
2008,10,15,03,33,3.80
2008,10,15,03,34,3.80
2008,10,15,03,35,3.80
2008,10,15,03,36,3.80
2008,10,15,03,37,3.80
2008,10,15,03,38,3.80
2008,10,15,03,39,3.80
2008,10,15,03,40,3.80
2008,10,15,03,41,3.80
2008,10,15,03,42,3.80
2008,10,15,03,43,3.80
2008,10,15,03,44,3.80
2008,10,15,03,45,3.80
2008,10,15,03,46,3.80
2008,10,15,03,47,3.80
2008,10,15,03,48,3.80
2008,10,15,03,49,3.80
2008,10,15,03,50,3.80
2008,10,15,03,51,3.80
2008,10,15,03,52,3.80
2008,10,15,03,53,3.80
2008,10,15,03,54,3.80
2008,10,15,03,55,3.80
2008,10,15,03,56,3.80
2008,10,15,03,57,3.80
2008,10,15,03,58,3.80
2008,10,15,03,59,3.80
2008,10,15,04,00,3.80
2008,10,15,04,01,3.80
2008,10,15,04,02,3.80
2008,10,15,04,03,3.80
2008,10,15,04,04,3.80
2008,10,15,04,05,3.80
2008,10,15,04,06,3.80
2008,10,15,04,07,3.80
2008,10,15,04,08,3.80
2008,10,15,04,09,3.80
2008,10,15,04,10,3.80
2008,10,15,04,11,3.80
2008,10,15,04,12,3.90
2008,10,15,04,13,3.90
2008,10,15,04,14,3.90
2008,10,15,04,15,3.90
2008,10,15,04,16,3.90
2008,10,15,04,17,3.90
2008,10,15,04,18,3.90
2008,10,15,04,19,3.90
2008,10,15,04,20,4.00
2008,10,15,04,21,4.00
2008,10,15,04,22,4.00
2008,10,15,04,23,4.00
2008,10,15,04,24,4.00
2008,10,15,04,25,4.00
2008,10,15,04,26,4.00
2008,10,15,04,27,4.10
2008,10,15,04,28,4.10
2008,10,15,04,29,4.10
2008,10,15,04,30,4.10
2008,10,15,04,31,4.10
2008,10,15,04,32,4.10
2008,10,15,04,33,4.10
2008,10,15,04,34,4.10
2008,10,15,04,35,4.10
2008,10,15,04,36,4.10
2008,10,15,04,37,4.20
2008,10,15,04,38,4.20
2008,10,15,04,39,4.20
2008,10,15,04,40,4.20
2008,10,15,04,41,4.20
2008,10,15,04,42,4.20
2008,10,15,04,43,4.20
2008,10,15,04,44,4.20
2008,10,15,04,45,4.20
2008,10,15,04,46,4.20
2008,10,15,04,47,4.20
2008,10,15,04,48,4.20
2008,10,15,04,49,4.20
2008,10,15,04,50,4.20
2008,10,15,04,51,4.20
2008,10,15,04,52,4.20
2008,10,15,04,53,4.20
2008,10,15,04,54,4.20
2008,10,15,04,55,4.20
2008,10,15,04,56,4.20
2008,10,15,04,57,4.30
2008,10,15,04,58,4.30
2008,10,15,04,59,4.30
2008,10,15,05,00,4.30
2008,10,15,05,01,4.30
2008,10,15,05,02,4.30
2008,10,15,05,03,4.30
2008,10,15,05,04,4.30
2008,10,15,05,05,4.30
2008,10,15,05,06,4.30
2008,10,15,05,07,4.30
2008,10,15,05,08,4.40
2008,10,15,05,09,4.40
2008,10,15,05,10,4.40
2008,10,15,05,11,4.40
2008,10,15,05,12,4.40
2008,10,15,05,13,4.40
2008,10,15,05,14,4.40
2008,10,15,05,15,4.50
2008,10,15,05,16,4.50
2008,10,15,05,17,4.50
2008,10,15,05,18,4.50
2008,10,15,05,19,4.50
2008,10,15,05,20,4.50
2008,10,15,05,21,4.50
2008,10,15,05,22,4.60
2008,10,15,05,23,4.60
2008,10,15,05,24,4.60
2008,10,15,05,25,4.60
2008,10,15,05,26,4.60
2008,10,15,05,27,4.60
2008,10,15,05,28,4.60
2008,10,15,05,29,4.60
2008,10,15,05,30,4.60
2008,10,15,05,31,4.60
2008,10,15,05,32,4.60
2008,10,15,05,33,4.60
2008,10,15,05,34,4.60
2008,10,15,05,35,4.60
2008,10,15,05,36,4.60
2008,10,15,05,37,4.60
2008,10,15,05,38,4.60
2008,10,15,05,39,4.60
2008,10,15,05,40,4.60
2008,10,15,05,41,4.60
2008,10,15,05,42,4.60
2008,10,15,05,43,4.60
2008,10,15,05,44,4.60
2008,10,15,05,45,4.60
2008,10,15,05,46,4.60
2008,10,15,05,47,4.60
2008,10,15,05,48,4.60
2008,10,15,05,49,4.60
2008,10,15,05,50,4.50
2008,10,15,05,51,4.50
2008,10,15,05,52,4.50
2008,10,15,05,53,4.50
2008,10,15,05,54,4.50
2008,10,15,05,55,4.50
2008,10,15,05,56,4.50
2008,10,15,05,57,4.50
2008,10,15,05,58,4.50
2008,10,15,05,59,4.50
2008,10,15,06,00,4.50
2008,10,15,06,01,4.50
2008,10,15,06,02,4.40
2008,10,15,06,03,4.40
2008,10,15,06,04,4.40
2008,10,15,06,05,4.40
2008,10,15,06,06,4.40
2008,10,15,06,07,4.30
2008,10,15,06,08,4.30
2008,10,15,06,09,4.30
2008,10,15,06,10,4.30
2008,10,15,06,11,4.30
2008,10,15,06,12,4.30
2008,10,15,06,13,4.20
2008,10,15,06,14,4.20
2008,10,15,06,15,4.20
2008,10,15,06,16,4.20
2008,10,15,06,17,4.20
2008,10,15,06,18,4.20
2008,10,15,06,19,4.20
2008,10,15,06,20,4.20
2008,10,15,06,21,4.20
2008,10,15,06,22,4.20
2008,10,15,06,23,4.20
2008,10,15,06,24,4.20
2008,10,15,06,25,4.20
2008,10,15,06,26,4.20
2008,10,15,06,27,4.20
2008,10,15,06,28,4.20
2008,10,15,06,29,4.20
2008,10,15,06,30,4.20
2008,10,15,06,31,4.20
2008,10,15,06,32,4.20
2008,10,15,06,33,4.20
2008,10,15,06,34,4.20
2008,10,15,06,35,4.10
2008,10,15,06,36,4.10
2008,10,15,06,37,4.10
2008,10,15,06,38,4.10
2008,10,15,06,39,4.10
2008,10,15,06,40,4.10
2008,10,15,06,41,4.10
2008,10,15,06,42,4.10
2008,10,15,06,43,4.10
2008,10,15,06,44,4.10
2008,10,15,06,45,4.10
2008,10,15,06,46,4.10
2008,10,15,06,47,4.10
2008,10,15,06,48,4.10
2008,10,15,06,49,4.10
2008,10,15,06,50,4.10
2008,10,15,06,51,4.10
2008,10,15,06,52,4.10
2008,10,15,06,53,4.10
2008,10,15,06,54,4.10
2008,10,15,06,55,4.10
2008,10,15,06,56,4.10
2008,10,15,06,57,4.10
2008,10,15,06,58,4.10
2008,10,15,06,59,4.10
2008,10,15,07,00,4.10
2008,10,15,07,01,4.10
2008,10,15,07,02,4.10
2008,10,15,07,03,4.10
2008,10,15,07,04,4.10
2008,10,15,07,05,4.10
2008,10,15,07,06,4.10
2008,10,15,07,07,4.10
2008,10,15,07,08,4.00
2008,10,15,07,09,4.00
2008,10,15,07,10,4.00
2008,10,15,07,11,4.00
2008,10,15,07,12,4.00
2008,10,15,07,13,4.00
2008,10,15,07,14,4.00
2008,10,15,07,15,4.00
2008,10,15,07,16,4.00
2008,10,15,07,17,4.00
2008,10,15,07,18,4.00
2008,10,15,07,19,4.00
2008,10,15,07,20,4.00
2008,10,15,07,21,4.00
2008,10,15,07,22,4.00
2008,10,15,07,23,4.00
2008,10,15,07,24,4.00
2008,10,15,07,25,4.00
2008,10,15,07,26,4.00
2008,10,15,07,27,4.00
2008,10,15,07,28,4.00
2008,10,15,07,29,4.00
2008,10,15,07,30,4.00
2008,10,15,07,31,4.00
2008,10,15,07,32,4.00
2008,10,15,07,33,4.00
2008,10,15,07,34,4.00
2008,10,15,07,35,4.00
2008,10,15,07,36,4.00
2008,10,15,07,37,4.00
2008,10,15,07,38,4.00
2008,10,15,07,39,4.00
2008,10,15,07,40,4.00
2008,10,15,07,41,4.00
2008,10,15,07,42,4.00
2008,10,15,07,43,4.00
2008,10,15,07,44,4.00
2008,10,15,07,45,4.00
2008,10,15,07,46,4.00
2008,10,15,07,47,4.00
2008,10,15,07,48,4.00
2008,10,15,07,49,4.00
2008,10,15,07,50,4.00
2008,10,15,07,51,4.00
2008,10,15,07,52,4.00
2008,10,15,07,53,4.00
2008,10,15,07,54,4.00
2008,10,15,07,55,4.00
2008,10,15,07,56,4.00
2008,10,15,07,57,4.00
2008,10,15,07,58,4.00
2008,10,15,07,59,4.00
2008,10,15,08,00,4.00
2008,10,15,08,01,4.00
2008,10,15,08,02,4.10
2008,10,15,08,03,4.10
2008,10,15,08,04,4.10
2008,10,15,08,05,4.10
2008,10,15,08,06,4.10
2008,10,15,08,07,4.10
2008,10,15,08,08,4.10
2008,10,15,08,09,4.20
2008,10,15,08,10,4.20
2008,10,15,08,11,4.20
2008,10,15,08,12,4.20
2008,10,15,08,13,4.20
2008,10,15,08,14,4.20
2008,10,15,08,15,4.20
2008,10,15,08,16,4.20
2008,10,15,08,17,4.20
2008,10,15,08,18,4.20
2008,10,15,08,19,4.20
2008,10,15,08,20,4.20
2008,10,15,08,21,4.20
2008,10,15,08,22,4.20
2008,10,15,08,23,4.20
2008,10,15,08,24,4.20
2008,10,15,08,25,4.30
2008,10,15,08,26,4.30
2008,10,15,08,27,4.30
2008,10,15,08,28,4.30
2008,10,15,08,29,4.30
2008,10,15,08,30,4.40
2008,10,15,08,31,4.40
2008,10,15,08,32,4.40
2008,10,15,08,33,4.50
2008,10,15,08,34,4.50
2008,10,15,08,35,4.50
2008,10,15,08,36,4.60
2008,10,15,08,37,4.60
2008,10,15,08,38,4.60
2008,10,15,08,39,4.60
2008,10,15,08,40,4.70
2008,10,15,08,41,4.70
2008,10,15,08,42,4.80
2008,10,15,08,43,4.80
2008,10,15,08,44,4.80
2008,10,15,08,45,4.90
2008,10,15,08,46,4.90
2008,10,15,08,47,4.90
2008,10,15,08,48,4.90
2008,10,15,08,49,4.90
2008,10,15,08,50,4.90
2008,10,15,08,51,4.90
2008,10,15,08,52,5.00
2008,10,15,08,53,5.10
2008,10,15,08,54,5.10
2008,10,15,08,55,5.10
2008,10,15,08,56,5.10
2008,10,15,08,57,5.10
2008,10,15,08,58,5.10
2008,10,15,08,59,5.20
2008,10,15,09,00,5.20
2008,10,15,09,01,5.20
2008,10,15,09,02,5.30
2008,10,15,09,03,5.30
2008,10,15,09,04,5.30
2008,10,15,09,05,5.30
2008,10,15,09,06,5.40
2008,10,15,09,07,5.40
2008,10,15,09,08,5.50
2008,10,15,09,09,5.50
2008,10,15,09,10,5.50
2008,10,15,09,11,5.50
2008,10,15,09,12,5.60
2008,10,15,09,13,5.60
2008,10,15,09,14,5.60
2008,10,15,09,15,5.60
2008,10,15,09,16,5.70
2008,10,15,09,17,5.70
2008,10,15,09,18,5.70
2008,10,15,09,19,5.70
2008,10,15,09,20,5.80
2008,10,15,09,21,5.90
2008,10,15,09,22,5.90
2008,10,15,09,23,6.00
2008,10,15,09,24,6.10
2008,10,15,09,25,6.10
2008,10,15,09,26,6.20
2008,10,15,09,27,6.20
2008,10,15,09,28,6.20
2008,10,15,09,29,6.20
2008,10,15,09,30,6.20
2008,10,15,09,31,6.20
2008,10,15,09,32,6.30
2008,10,15,09,33,6.30
2008,10,15,09,34,6.30
2008,10,15,09,35,6.30
2008,10,15,09,36,6.40
2008,10,15,09,37,6.40
2008,10,15,09,38,6.40
2008,10,15,09,39,6.40
2008,10,15,09,40,6.40
2008,10,15,09,41,6.50
2008,10,15,09,42,6.60
2008,10,15,09,43,6.60
2008,10,15,09,44,6.70
2008,10,15,09,45,6.80
2008,10,15,09,46,6.80
2008,10,15,09,47,6.90
2008,10,15,09,48,7.00
2008,10,15,09,49,7.00
2008,10,15,09,50,7.10
2008,10,15,09,51,7.20
2008,10,15,09,52,7.20
2008,10,15,09,53,7.20
2008,10,15,09,54,7.20
2008,10,15,09,55,7.30
2008,10,15,09,56,7.30
2008,10,15,09,57,7.30
2008,10,15,09,58,7.30
2008,10,15,09,59,7.30
2008,10,15,10,00,7.30
2008,10,15,10,01,7.30
2008,10,15,10,02,7.30
2008,10,15,10,03,7.40
2008,10,15,10,04,7.40
2008,10,15,10,05,7.50
2008,10,15,10,06,7.50
2008,10,15,10,07,7.50
2008,10,15,10,08,7.50
2008,10,15,10,09,7.50
2008,10,15,10,10,7.50
2008,10,15,10,11,7.50
2008,10,15,10,12,7.50
2008,10,15,10,13,7.50
2008,10,15,10,14,7.50
2008,10,15,10,15,7.50
2008,10,15,10,16,7.50
2008,10,15,10,17,7.50
2008,10,15,10,18,7.50
2008,10,15,10,19,7.50
2008,10,15,10,20,7.50
2008,10,15,10,21,7.50
2008,10,15,10,22,7.50
2008,10,15,10,23,7.50
2008,10,15,10,24,7.50
2008,10,15,10,25,7.50
2008,10,15,10,26,7.50
2008,10,15,10,27,7.50
2008,10,15,10,28,7.50
2008,10,15,10,29,7.50
2008,10,15,10,30,7.50
2008,10,15,10,31,7.50
2008,10,15,10,32,7.60
2008,10,15,10,33,7.60
2008,10,15,10,34,7.60
2008,10,15,10,35,7.60
2008,10,15,10,36,7.60
2008,10,15,10,37,7.70
2008,10,15,10,38,7.70
2008,10,15,10,39,7.70
2008,10,15,10,40,7.70
2008,10,15,10,41,7.70
2008,10,15,10,42,7.70
2008,10,15,10,43,7.70
2008,10,15,10,44,7.80
2008,10,15,10,45,7.80
2008,10,15,10,46,7.80
2008,10,15,10,47,7.80
2008,10,15,10,48,7.80
2008,10,15,10,49,7.80
2008,10,15,10,50,7.80
2008,10,15,10,51,7.80
2008,10,15,10,52,7.80
2008,10,15,10,53,7.80
2008,10,15,10,54,7.80
2008,10,15,10,55,7.80
2008,10,15,10,56,7.80
2008,10,15,10,57,7.80
2008,10,15,10,58,7.80
2008,10,15,10,59,7.80
2008,10,15,11,00,7.80
2008,10,15,11,01,7.80
2008,10,15,11,02,7.80
2008,10,15,11,03,7.80
2008,10,15,11,04,7.90
2008,10,15,11,05,7.90
2008,10,15,11,06,8.00
2008,10,15,11,07,8.00
2008,10,15,11,08,8.10
2008,10,15,11,09,8.10
2008,10,15,11,10,8.10
2008,10,15,11,11,8.10
2008,10,15,11,12,8.10
2008,10,15,11,13,8.10
2008,10,15,11,14,8.20
2008,10,15,11,15,8.30
2008,10,15,11,16,8.30
2008,10,15,11,17,8.40
2008,10,15,11,18,8.40
2008,10,15,11,19,8.50
2008,10,15,11,20,8.50
2008,10,15,11,21,8.40
2008,10,15,11,22,8.40
2008,10,15,11,23,8.40
2008,10,15,11,24,8.50
2008,10,15,11,25,8.50
2008,10,15,11,26,8.60
2008,10,15,11,27,8.70
2008,10,15,11,28,8.70
2008,10,15,11,29,8.70
2008,10,15,11,30,8.80
2008,10,15,11,31,8.80
2008,10,15,11,32,8.90
2008,10,15,11,33,8.90
2008,10,15,11,34,8.80
2008,10,15,11,35,8.80
2008,10,15,11,36,8.80
2008,10,15,11,37,8.80
2008,10,15,11,38,8.70
2008,10,15,11,39,8.70
2008,10,15,11,40,8.70
2008,10,15,11,41,8.70
2008,10,15,11,42,8.60
2008,10,15,11,43,8.60
2008,10,15,11,44,8.60
2008,10,15,11,45,8.60
2008,10,15,11,46,8.60
2008,10,15,11,47,8.70
2008,10,15,11,48,8.70
2008,10,15,11,49,8.70
2008,10,15,11,50,8.70
2008,10,15,11,51,8.70
2008,10,15,11,52,8.70
2008,10,15,11,53,8.70
2008,10,15,11,54,8.70
2008,10,15,11,55,8.70
2008,10,15,11,56,8.80
2008,10,15,11,57,8.80
2008,10,15,11,58,8.80
2008,10,15,11,59,8.80
2008,10,15,12,00,8.90
2008,10,15,12,01,8.90
2008,10,15,12,02,8.90
2008,10,15,12,03,8.90
2008,10,15,12,04,9.00
2008,10,15,12,05,9.00
2008,10,15,12,06,9.00
2008,10,15,12,07,9.00
2008,10,15,12,08,9.00
2008,10,15,12,09,8.90
2008,10,15,12,10,8.90
2008,10,15,12,11,9.00
2008,10,15,12,12,9.00
2008,10,15,12,13,9.00
2008,10,15,12,14,9.00
2008,10,15,12,15,9.00
2008,10,15,12,16,9.00
2008,10,15,12,17,9.00
2008,10,15,12,18,9.00
2008,10,15,12,19,9.00
2008,10,15,12,20,9.00
2008,10,15,12,21,9.00
2008,10,15,12,22,9.00
2008,10,15,12,23,8.90
2008,10,15,12,24,8.90
2008,10,15,12,25,8.90
2008,10,15,12,26,8.80
2008,10,15,12,27,8.80
2008,10,15,12,28,8.80
2008,10,15,12,29,8.90
2008,10,15,12,30,8.90
2008,10,15,12,31,9.00
2008,10,15,12,32,9.00
2008,10,15,12,33,9.10
2008,10,15,12,34,9.20
2008,10,15,12,35,9.20
2008,10,15,12,36,9.20
2008,10,15,12,37,9.20
2008,10,15,12,38,9.30
2008,10,15,12,39,9.30
2008,10,15,12,40,9.40
2008,10,15,12,41,9.40
2008,10,15,12,42,9.40
2008,10,15,12,43,9.40
2008,10,15,12,44,9.40
2008,10,15,12,45,9.40
2008,10,15,12,46,9.30
2008,10,15,12,47,9.30
2008,10,15,12,48,9.30
2008,10,15,12,49,9.20
2008,10,15,12,50,9.30
2008,10,15,12,51,9.30
2008,10,15,12,52,9.40
2008,10,15,12,53,9.40
2008,10,15,12,54,9.50
2008,10,15,12,55,9.60
2008,10,15,12,56,9.70
2008,10,15,12,57,9.80
2008,10,15,12,58,9.80
2008,10,15,12,59,9.80
2008,10,15,13,00,9.70
2008,10,15,13,01,9.70
2008,10,15,13,02,9.70
2008,10,15,13,03,9.70
2008,10,15,13,04,9.70
2008,10,15,13,05,9.70
2008,10,15,13,06,9.80
2008,10,15,13,07,9.90
2008,10,15,13,08,9.90
2008,10,15,13,09,9.90
2008,10,15,13,10,10.10
2008,10,15,13,11,10.10
2008,10,15,13,12,10.10
2008,10,15,13,13,10.10
2008,10,15,13,14,10.20
2008,10,15,13,15,10.30
2008,10,15,13,16,10.30
2008,10,15,13,17,10.40
2008,10,15,13,18,10.40
2008,10,15,13,19,10.30
2008,10,15,13,20,10.20
2008,10,15,13,21,10.20
2008,10,15,13,22,10.10
2008,10,15,13,23,10.00
2008,10,15,13,24,9.90
2008,10,15,13,25,9.90
2008,10,15,13,26,9.90
2008,10,15,13,27,9.80
2008,10,15,13,28,9.80
2008,10,15,13,29,9.70
2008,10,15,13,30,9.70
2008,10,15,13,31,9.70
2008,10,15,13,32,9.70
2008,10,15,13,33,9.70
2008,10,15,13,34,9.70
2008,10,15,13,35,9.60
2008,10,15,13,36,9.60
2008,10,15,13,37,9.60
2008,10,15,13,38,9.60
2008,10,15,13,39,9.60
2008,10,15,13,40,9.50
2008,10,15,13,41,9.40
2008,10,15,13,42,9.40
2008,10,15,13,43,9.40
2008,10,15,13,44,9.40
2008,10,15,13,45,9.40
2008,10,15,13,46,9.40
2008,10,15,13,47,9.40
2008,10,15,13,48,9.40
2008,10,15,13,49,9.30
2008,10,15,13,50,9.30
2008,10,15,13,51,9.30
2008,10,15,13,52,9.30
2008,10,15,13,53,9.20
2008,10,15,13,54,9.20
2008,10,15,13,55,9.20
2008,10,15,13,56,9.20
2008,10,15,13,57,9.20
2008,10,15,13,58,9.20
2008,10,15,13,59,9.20
2008,10,15,14,00,9.20
2008,10,15,14,01,9.20
2008,10,15,14,02,9.20
2008,10,15,14,03,9.20
2008,10,15,14,04,9.20
2008,10,15,14,05,9.20
2008,10,15,14,06,9.20
2008,10,15,14,07,9.20
2008,10,15,14,08,9.20
2008,10,15,14,09,9.20
2008,10,15,14,10,9.20
2008,10,15,14,11,9.20
2008,10,15,14,12,9.20
2008,10,15,14,13,9.20
2008,10,15,14,14,9.20
2008,10,15,14,15,9.20
2008,10,15,14,16,9.20
2008,10,15,14,17,9.20
2008,10,15,14,18,9.30
2008,10,15,14,19,9.30
2008,10,15,14,20,9.30
2008,10,15,14,21,9.30
2008,10,15,14,22,9.20
2008,10,15,14,23,9.20
2008,10,15,14,24,9.20
2008,10,15,14,25,9.20
2008,10,15,14,26,9.20
2008,10,15,14,27,9.20
2008,10,15,14,28,9.20
2008,10,15,14,29,9.20
2008,10,15,14,30,9.20
2008,10,15,14,31,9.20
2008,10,15,14,32,9.20
2008,10,15,14,33,9.20
2008,10,15,14,34,9.20
2008,10,15,14,35,9.20
2008,10,15,14,36,9.20
2008,10,15,14,37,9.20
2008,10,15,14,38,9.20
2008,10,15,14,39,9.20
2008,10,15,14,40,9.20
2008,10,15,14,41,9.20
2008,10,15,14,42,9.20
2008,10,15,14,43,9.20
2008,10,15,14,44,9.20
2008,10,15,14,45,9.10
2008,10,15,14,46,9.10
2008,10,15,14,47,9.10
2008,10,15,14,48,9.10
2008,10,15,14,49,9.10
2008,10,15,14,50,9.10
2008,10,15,14,51,9.10
2008,10,15,14,52,9.10
2008,10,15,14,53,9.10
2008,10,15,14,54,9.10
2008,10,15,14,55,9.10
2008,10,15,14,56,9.10
2008,10,15,14,57,9.10
2008,10,15,14,58,9.10
2008,10,15,14,59,9.10
2008,10,15,15,00,9.10
2008,10,15,15,01,9.10
2008,10,15,15,02,9.10
2008,10,15,15,03,9.10
2008,10,15,15,04,9.10
2008,10,15,15,05,9.10
2008,10,15,15,06,9.10
2008,10,15,15,07,9.10
2008,10,15,15,08,9.10
2008,10,15,15,09,9.10
2008,10,15,15,10,9.10
2008,10,15,15,11,9.10
2008,10,15,15,12,9.10
2008,10,15,15,13,9.10
2008,10,15,15,14,9.10
2008,10,15,15,15,9.00
2008,10,15,15,16,9.00
2008,10,15,15,17,9.00
2008,10,15,15,18,9.00
2008,10,15,15,19,9.00
2008,10,15,15,20,9.00
2008,10,15,15,21,9.00
2008,10,15,15,22,9.00
2008,10,15,15,23,8.90
2008,10,15,15,24,8.90
2008,10,15,15,25,8.90
2008,10,15,15,26,8.90
2008,10,15,15,27,8.90
2008,10,15,15,28,8.90
2008,10,15,15,29,8.90
2008,10,15,15,30,8.90
2008,10,15,15,31,8.90
2008,10,15,15,32,8.90
2008,10,15,15,33,8.90
2008,10,15,15,34,8.90
2008,10,15,15,35,8.90
2008,10,15,15,36,8.90
2008,10,15,15,37,8.90
2008,10,15,15,38,8.90
2008,10,15,15,39,9.00
2008,10,15,15,40,9.00
2008,10,15,15,41,9.00
2008,10,15,15,42,9.00
2008,10,15,15,43,9.00
2008,10,15,15,44,9.00
2008,10,15,15,45,9.00
2008,10,15,15,46,9.00
2008,10,15,15,47,9.00
2008,10,15,15,48,9.00
2008,10,15,15,49,9.00
2008,10,15,15,50,9.00
2008,10,15,15,51,9.00
2008,10,15,15,52,8.90
2008,10,15,15,53,8.90
2008,10,15,15,54,8.90
2008,10,15,15,55,8.90
2008,10,15,15,56,8.90
2008,10,15,15,57,8.90
2008,10,15,15,58,8.90
2008,10,15,15,59,8.90
2008,10,15,16,00,8.90
2008,10,15,16,01,8.90
2008,10,15,16,02,8.90
2008,10,15,16,03,8.90
2008,10,15,16,04,8.90
2008,10,15,16,05,8.90
2008,10,15,16,06,8.90
2008,10,15,16,07,8.90
2008,10,15,16,08,8.90
2008,10,15,16,09,8.90
2008,10,15,16,10,8.90
2008,10,15,16,11,8.90
2008,10,15,16,12,8.90
2008,10,15,16,13,8.90
2008,10,15,16,14,8.90
2008,10,15,16,15,8.90
2008,10,15,16,16,8.90
2008,10,15,16,17,8.90
2008,10,15,16,18,8.90
2008,10,15,16,19,8.90
2008,10,15,16,20,8.90
2008,10,15,16,21,8.90
2008,10,15,16,22,8.90
2008,10,15,16,23,8.90
2008,10,15,16,24,8.90
2008,10,15,16,25,8.90
2008,10,15,16,26,8.90
2008,10,15,16,27,8.80
2008,10,15,16,28,8.80
2008,10,15,16,29,8.80
2008,10,15,16,30,8.80
2008,10,15,16,31,8.80
2008,10,15,16,32,8.80
2008,10,15,16,33,8.80
2008,10,15,16,34,8.70
2008,10,15,16,35,8.70
2008,10,15,16,36,8.70
2008,10,15,16,37,8.70
2008,10,15,16,38,8.70
2008,10,15,16,39,8.70
2008,10,15,16,40,8.70
2008,10,15,16,41,8.70
2008,10,15,16,42,8.70
2008,10,15,16,43,8.70
2008,10,15,16,44,8.70
2008,10,15,16,45,8.70
2008,10,15,16,46,8.70
2008,10,15,16,47,8.60
2008,10,15,16,48,8.60
2008,10,15,16,49,8.60
2008,10,15,16,50,8.60
2008,10,15,16,51,8.60
2008,10,15,16,52,8.60
2008,10,15,16,53,8.50
2008,10,15,16,54,8.50
2008,10,15,16,55,8.50
2008,10,15,16,56,8.50
2008,10,15,16,57,8.50
2008,10,15,16,58,8.50
2008,10,15,16,59,8.50
2008,10,15,17,00,8.40
2008,10,15,17,01,8.40
2008,10,15,17,02,8.40
2008,10,15,17,03,8.40
2008,10,15,17,04,8.30
2008,10,15,17,05,8.30
2008,10,15,17,06,8.30
2008,10,15,17,07,8.30
2008,10,15,17,08,8.30
2008,10,15,17,09,8.30
2008,10,15,17,10,8.30
2008,10,15,17,11,8.30
2008,10,15,17,12,8.30
2008,10,15,17,13,8.30
2008,10,15,17,14,8.30
2008,10,15,17,15,8.30
2008,10,15,17,16,8.30
2008,10,15,17,17,8.30
2008,10,15,17,18,8.20
2008,10,15,17,19,8.20
2008,10,15,17,20,8.20
2008,10,15,17,21,8.20
2008,10,15,17,22,8.20
2008,10,15,17,23,8.20
2008,10,15,17,24,8.20
2008,10,15,17,25,8.20
2008,10,15,17,26,8.20
2008,10,15,17,27,8.20
2008,10,15,17,28,8.20
2008,10,15,17,29,8.20
2008,10,15,17,30,8.20
2008,10,15,17,31,8.20
2008,10,15,17,32,8.20
2008,10,15,17,33,8.20
2008,10,15,17,34,8.20
2008,10,15,17,35,8.20
2008,10,15,17,36,8.20
2008,10,15,17,37,8.20
2008,10,15,17,38,8.20
2008,10,15,17,39,8.20
2008,10,15,17,40,8.20
2008,10,15,17,41,8.20
2008,10,15,17,42,8.20
2008,10,15,17,43,8.20
2008,10,15,17,44,8.20
2008,10,15,17,45,8.20
2008,10,15,17,46,8.20
2008,10,15,17,47,8.20
2008,10,15,17,48,8.20
2008,10,15,17,49,8.20
2008,10,15,17,50,8.20
2008,10,15,17,51,8.10
2008,10,15,17,52,8.10
2008,10,15,17,53,8.10
2008,10,15,17,54,8.10
2008,10,15,17,55,8.10
2008,10,15,17,56,8.10
2008,10,15,17,57,8.10
2008,10,15,17,58,8.00
2008,10,15,17,59,8.00
2008,10,15,18,00,8.00
2008,10,15,18,01,8.00
2008,10,15,18,02,8.00
2008,10,15,18,03,8.00
2008,10,15,18,04,8.00
2008,10,15,18,05,8.00
2008,10,15,18,06,8.00
2008,10,15,18,07,7.90
2008,10,15,18,08,7.90
2008,10,15,18,09,7.90
2008,10,15,18,10,7.90
2008,10,15,18,11,7.90
2008,10,15,18,12,7.80
2008,10,15,18,13,7.80
2008,10,15,18,14,7.80
2008,10,15,18,15,7.80
2008,10,15,18,16,7.80
2008,10,15,18,17,7.80
2008,10,15,18,18,7.80
2008,10,15,18,19,7.80
2008,10,15,18,20,7.80
2008,10,15,18,21,7.80
2008,10,15,18,22,7.80
2008,10,15,18,23,7.80
2008,10,15,18,24,7.80
2008,10,15,18,25,7.70
2008,10,15,18,26,7.70
2008,10,15,18,27,7.70
2008,10,15,18,28,7.70
2008,10,15,18,29,7.70
2008,10,15,18,30,7.70
2008,10,15,18,31,7.70
2008,10,15,18,32,7.60
2008,10,15,18,33,7.60
2008,10,15,18,34,7.60
2008,10,15,18,35,7.60
2008,10,15,18,36,7.60
2008,10,15,18,37,7.60
2008,10,15,18,38,7.60
2008,10,15,18,39,7.60
2008,10,15,18,40,7.60
2008,10,15,18,41,7.60
2008,10,15,18,42,7.50
2008,10,15,18,43,7.50
2008,10,15,18,44,7.50
2008,10,15,18,45,7.50
2008,10,15,18,46,7.50
2008,10,15,18,47,7.50
2008,10,15,18,48,7.50
2008,10,15,18,49,7.50
2008,10,15,18,50,7.40
2008,10,15,18,51,7.40
2008,10,15,18,52,7.40
2008,10,15,18,53,7.40
2008,10,15,18,54,7.30
2008,10,15,18,55,7.30